Probability
0 0 0 0 0 0 0 0 0 0 0 0 0 0 0 0 0 0 0 0 0 0 0 0 0 0 0 0 0 0 0 0 0 0 0 0 0 0 0 0 0 0 0 0
0 0 0 0 0 0 0 0 0 0 0 0 0 0 0 0 0 0 0 0 0 0 0 0 0 0 0 0 0 0 0 0 0 0 0 0 0 0 0 0 0 0 0 0
0 0 0 0 0 0 0 0 0 0 0 0 0 0 0 0 0 0 0 0 0 0 0 0 0 0 0 0 0 0 0 0 0 0 0 0 0 0 0 0 0 0 0 0
0 0 0 0 0 0 0 0 0 0 0 0 0 0 0 0 0 0 0 0 0 0 0 0 0 0 0 0 0 0 0 0 0 0 0 0 0 0 0 0 0 0 0 0
0 0 0 0 0 0 0 0 0 0 0 0 0 0 0 0 0 0 0 0 0 0 0 0 0 0 0 0 0 0 0 0 0 0 0 0 0 0 0 0 0 0 0 0
0 0 0 0 0 0 0 0 0 0 0 0 0 0 0 0 0 0 0 0 0 0 0 0 0 0 0 0 0 0 0 0 0 0 0 0 0 0 0 0 0 0 0 0
0 0 0 0 0 0 0 0 0 0 0 0 0 0 0 0 0 0 0 0 0 0 0 0 0 0 0 0 0 0 0 0 0 0 0 0 0 0 0 0 0 0 0 0
0 0 0 0 0 0 0 0 0 0 0 0 0 0 0 0 0 0 0 0 0 0 0 0 0 0 0 0 0 0 0 0 0 0 0 0 0 0 0 0 0 0 0 0
0 0 0 0 0 0 0 0 0 0 0 0 0 0 0 0 0 0 0 0 0 0 0 0 0 0 0 0 0 0 0 0 0 0 0 0 0 0 0 0 0 0 0 0
0 0 0 0 0 0 0 0 0 0 0 0 0 0 0 0 0 0 0 0 0 0 0 0 0 0 0 0 0 0 0 0 0 0 0 0 0 0 0 0 0 0 0 0
0 0 0 0 0 0 0 0 0 0 0 0 0 0 0 0 0 0 0 0 0 0 0 0 0 0 0 0 0 0 0 0 0 0 0 0 0 0 0 0 0 0 0 0
0 0 0 0 0 0 0 0 0 0 0 0 0 0 0 0 0 0 0 0 0 0 0 0 0 0 0 0 0 0 0 0 0 0 0 0 0 0 0 0 0 0 0 0
0 0 0 0 0 0 0 0 0 0 0 0 0 0 0 0 0 0 0 0 0 0 0 0 0 0 0 0 0 0 0 0 0 0 0 0 0 0 0 0 0 0 0 0
0 0 0 0 0 0 0 0 0 0 0 0 0 0 0 0 0 0 0 0 0 0 0 0 0 0 0 0 0 0 0 0 0 0 0 0 0 0 0 0 0 0 0 0
0 0 0 0 0 0 0 0 0 0 0 0 0 0 0 0 0 0 0 0 0 0 0 0 0 0 0 0 0 0 0 0 0 0 0 0 0 0 0 0 0 0 0 0
0 0 0 0 0 0 0 0 0 0 0 0 0 0 0 0 0 0 0 0 0 0 0 0 0 0 0 0 0 0 0 0 0 0 0 0 0 0 0 0 0 0 0 0
0 0 0 0 0 0 0 0 0 0 0 0 0 0 0 0 0 0 0 0 0 0 0 0 0 0 0 0 0 0 0 0 0 0 0 0 0 0 0 0 0 0 0 0
0 0 0 0 0 0 0 0 0 0 0 0 0 0 0 0 0 0 0 0 0 0 0 0 0 0 0 0 0 0 0 0 0 0 0 0 0 0 0 0 0 0 0 0
0 0 0 0 0 0 0 0 0 0 0 0 0 0 0 0 0 0 0 0 0 0 0 0 0 0 0 0 0 0 0 0 0 0 0 0 0 0 0 0 0 0 0 0
0 0 0 0 0 0 0 0 0 0 0 0 0 0 0 0 0 0 0 0 0 0 0 0 0 0 0 0 0 0 0 0 0 0 0 0 0 0 0 0 0 0 0 0
0 0 0 0 0 0 0 0 0 0 0 0 0 0 0 0 0 0 0 0 0 0 0 0 0 0 0 0 0 0 0 0 0 0 0 0 0 0 0 0 0 0 0 0
0 0 0 0 0 0 0 0 0 0 0 0 0 0 0 0 0 0 0 0 0 0 0 0 0 0 0 0 0 0 0 0 0 0 0 0 0 0 0 0 0 0 0 0
0 0 0 0 0 0 0 0 0 0 0 0 0 0 0 0 0 0 0 0 0 0 0 0 0 0 0 0 0 0 0 0 0 0 0 0 0 0 0 0 0 0 0 0
0 0 0 0 0 0 0 0 0 0 0 0 0 0 0 0 0 0 0 0 0 0 0 0 0 0 0 0 0 0 0 0 0 0 0 0 0 0 0 0 0 0 0 0
0 0 0 0 0 0 0 0 0 0 0 0 0 0 0 0 0 0 0 0 0 0 0 0 0 0 0 0 0 0 0 0 0 0 0 0 0 0 0 0 0 0 0 0
0 0 0 0 0 0 0 0 0 0 0 0 0 0 0 0 0 0 0 0 0 0 0 0 0 0 0 0 0 0 0 0 0 0 0 0 0 0 0 0 0 0 0 0
Wind_Speed
8 10 13 12 12 8 5 7 10 8 4 6 13 17 18 16 14 16 16 15 14 14 10 9 10 9 10 11 12 14 15 14 12 10 9 8 7 6 5 4 5 5 5 5
9 16 14 8 7 8 9 10 11 9 3 6 12 19 19 16 15 14 14 14 13 12 10 10 10 10 11 11 13 14 14 15 14 10 9 7 7 5 4 4 5 5 5 5
20 8 10 10 10 10 11 12 11 9 6 6 9 13 11 9 8 9 10 11 11 11 11 11 12 11 11 11 12 11 14 14 14 12 8 7 5 4 5 6 5 5 5 5
18 10 9 12 13 13 12 9 9 8 8 6 4 10 10 8 9 6 5 4 6 7 9 10 11 12 11 10 10 11 13 14 14 13 12 13 9 8 8 6 6 6 6 6
14 13 13 15 14 13 7 3 5 5 7 9 8 9 10 6 6 3 3 3 4 4 7 9 10 10 10 10 9 10 12 13 13 13 13 13 10 8 6 7 8 7 6 6
9 7 12 12 6 9 7 6 4 3 6 10 8 9 9 4 4 6 7 7 5 2 5 7 8 9 9 9 9 10 12 12 12 13 13 12 12 10 10 10 9 7 5 5
12 8 6 6 8 8 10 8 6 7 7 7 3 7 10 7 6 9 11 10 6 2 5 8 10 11 10 11 11 11 12 12 12 12 12 12 11 12 12 11 9 8 6 5
19 15 15 11 12 11 14 13 9 6 6 3 5 9 8 7 7 7 8 7 4 2 5 7 9 10 10 11 11 11 12 12 12 12 11 10 10 8 8 9 8 8 6 6
18 14 8 10 7 12 11 12 9 7 4 7 8 7 9 7 4 3 3 3 1 2 5 7 9 10 10 11 11 12 12 12 12 11 11 10 10 9 8 9 8 6 5 5
11 12 8 8 6 4 7 9 7 8 7 9 8 9 7 5 3 2 2 3 1 2 5 7 8 10 9 10 10 11 11 11 11 11 10 8 10 9 9 8 8 7 7 7
13 10 8 10 15 16 12 11 10 9 8 7 7 6 4 6 4 4 4 3 2 1 4 7 8 9 9 9 10 11 11 11 11 11 10 10 9 9 9 8 8 8 7 7
15 10 9 9 4 7 15 16 16 12 11 8 8 7 3 5 5 5 5 4 2 2 3 6 8 9 10 11 11 12 11 11 11 11 10 10 10 9 9 9 8 8 8 7
16 12 11 7 7 6 11 14 17 14 10 11 12 9 3 4 5 6 6 5 3 3 4 6 7 9 10 11 11 12 12 12 11 11 11 11 11 10 10 9 9 8 7 7
15 13 16 16 9 13 14 16 17 17 13 15 18 16 11 10 9 8 7 6 5 4 5 6 7 8 9 10 11 11 12 11 11 11 11 12 11 11 10 9 8 8 7 7
12 14 14 11 6 10 13 17 20 23 22 18 17 19 19 16 14 11 9 7 6 5 5 6 7 7 8 9 10 10 11 11 11 12 12 11 10 9 9 8 8 7 7 7
12 11 13 12 9 9 9 14 19 22 21 23 21 20 17 16 13 12 12 9 8 7 6 6 6 7 8 9 9 10 10 11 11 12 11 10 9 9 9 8 8 7 7 6
14 11 13 11 9 7 14 18 18 15 16 17 21 21 15 12 12 12 10 8 8 7 5 5 6 6 6 7 8 9 9 10 10 10 10 10 10 9 9 8 7 7 7 7
16 14 8 7 9 13 10 7 17 19 18 19 17 16 15 13 10 8 8 8 8 6 5 5 4 5 5 5 6 7 8 9 9 9 9 9 9 9 8 8 7 7 6 6
13 14 8 8 11 10 6 7 11 15 16 18 20 19 13 4 4 8 8 8 6 5 4 3 4 4 5 6 7 8 8 8 8 8 9 9 9 8 8 7 7 6 6 6
7 10 9 8 10 11 8 7 9 8 10 11 16 17 11 8 7 5 5 6 5 4 4 5 5 6 6 6 7 8 8 8 8 7 7 7 7 7 7 7 6 5 5 6
12 11 14 11 11 10 4 8 12 10 7 4 11 12 11 12 7 3 7 6 6 6 6 6 6 6 6 6 7 7 7 6 6 6 6 6 6 6 5 5 4 4 5 6
17 14 14 12 12 10 9 12 14 7 3 5 6 8 10 9 5 6 7 7 7 7 7 7 6 6 6 6 7 7 6 6 6 6 6 5 5 4 3 4 4 5 5 7
14 14 10 12 11 2 14 12 8 3 5 6 6 7 9 9 8 8 7 7 7 7 7 6 7 7 6 5 5 6 6 6 6 6 5 4 3 3 3 4 5 5 5 6
7 4 7 7 8 6 10 7 5 6 5 5 6 8 10 9 10 9 8 8 7 7 7 6 7 7 6 5 5 5 6 6 5 5 4 3 2 3 3 3 4 5 6 6
10 11 9 9 4 4 7 12 11 9 6 5 6 7 9 10 10 10 9 8 7 7 6 6 6 7 7 6 5 5 5 5 4 3 2 2 2 3 4 5 5 7 7 7
10 12 13 10 10 9 9 10 12 11 11 10 9 7 8 9 10 10 8 8 8 7 7 7 6 7 7 6 6 5 4 4 3 2 2 2 2 3 4 5 6 9 11 14
Wind_Direction
180 205 215 215 220 241 248 256 267 274 276 268 274 280 283 281 266 259 256 251 242 237 228 204 198 194 193 192 192 189 185 183 180 180 180 180 182 179 177 176 181 181 181 177
189 221 222 214 205 215 231 252 267 277 252 263 285 284 282 275 268 264 264 258 248 239 216 201 196 191 191 188 188 185 184 181 182 182 180 182 170 170 165 160 167 171 172 167
211 215 199 188 191 210 229 245 261 276 292 249 288 281 270 273 267 269 264 260 255 240 225 204 194 190 189 187 184 182 181 179 181 176 165 149 142 143 162 166 163 165 167 165
223 196 173 196 210 216 237 234 247 261 277 285 303 298 290 291 291 276 273 266 261 241 228 208 195 188 186 182 178 178 176 177 177 174 175 174 178 180 181 171 162 160 165 164
209 196 193 208 214 208 232 181 210 242 262 276 250 265 281 286 278 298 326 316 302 258 225 205 194 186 178 170 171 172 172 175 176 180 181 183 186 179 161 159 160 160 158 159
206 191 213 219 207 200 154 140 142 203 246 259 249 246 275 262 275 312 321 327 324 269 211 196 180 174 167 164 166 169 172 174 176 181 183 186 180 168 162 166 166 165 158 160
199 196 192 174 152 163 185 202 222 223 219 241 165 238 258 274 288 295 304 313 319 260 196 183 176 176 171 171 170 173 174 174 177 181 184 184 179 174 174 173 175 171 168 171
198 204 193 191 195 181 195 210 224 246 248 232 192 239 258 290 296 289 289 296 297 221 192 188 185 182 177 176 176 176 178 175 176 180 181 179 174 175 176 176 174 178 176 173
198 201 175 190 197 187 182 214 237 262 275 270 246 249 277 272 274 292 306 309 298 203 190 190 188 188 184 182 183 182 180 177 177 179 175 174 174 174 169 169 171 171 168 161
193 189 164 164 156 198 215 180 180 215 237 246 248 246 246 243 270 318 348 354 358 183 191 191 192 192 190 188 185 186 186 182 178 177 174 172 173 171 166 167 169 169 167 168
189 177 155 174 198 189 177 190 205 212 234 247 254 237 217 241 267 296 317 330 321 218 197 194 193 192 190 187 187 187 188 184 180 179 175 173 170 168 169 171 171 171 171 177
192 194 185 190 184 241 209 205 201 212 215 230 258 259 171 234 258 269 285 299 296 249 208 198 193 190 190 192 191 190 190 189 186 181 178 176 170 170 174 174 173 174 179 184
177 192 181 179 197 188 212 215 217 226 238 228 238 249 155 222 243 247 262 280 275 239 213 199 195 196 197 196 195 194 193 191 185 181 180 177 176 178 180 177 175 178 183 188
182 198 206 210 201 186 199 205 209 213 227 235 236 249 241 244 252 261 267 272 272 247 220 210 205 203 201 200 198 196 195 191 184 183 185 185 184 184 182 177 178 182 187 194
193 209 213 223 185 180 200 205 206 216 228 240 247 249 253 256 263 271 275 271 260 250 228 216 212 205 200 199 199 197 194 189 185 186 189 189 185 180 177 178 181 183 191 202
197 207 201 206 190 195 212 215 212 221 231 241 252 259 258 262 265 263 262 257 251 245 232 219 210 205 202 198 197 194 193 188 186 189 190 183 178 176 178 181 181 186 197 205
185 182 190 205 185 198 234 221 213 216 222 229 239 247 252 249 246 250 254 246 242 240 226 215 208 202 200 196 193 191 187 181 185 189 185 179 178 177 179 179 185 194 204 213
182 187 191 169 168 220 234 210 216 223 230 226 237 249 249 249 255 253 249 244 237 224 211 201 191 183 178 175 176 173 170 174 180 183 181 178 177 178 177 183 194 204 213 223
192 182 177 181 209 237 240 203 194 208 235 228 231 242 245 234 254 249 229 225 223 206 188 168 159 154 151 154 156 156 160 167 174 179 179 177 176 175 179 191 203 210 222 234
182 194 185 184 208 227 223 175 171 182 243 227 218 230 225 181 226 235 161 171 168 153 142 137 134 134 136 139 149 153 157 165 172 174 174 171 174 177 187 199 209 217 230 245
177 192 204 201 218 238 196 142 156 193 229 178 198 211 194 198 222 121 136 144 144 135 131 133 131 128 129 140 148 151 155 162 159 157 158 162 171 182 192 202 213 226 238 250
180 187 200 205 217 223 158 158 190 208 123 163 181 190 190 192 160 144 148 145 144 139 137 137 131 124 128 143 150 148 150 144 144 148 153 159 168 169 192 211 228 239 248 260
197 195 190 201 215 181 169 191 202 163 177 181 180 181 176 173 175 166 160 154 149 145 140 140 135 128 129 142 152 146 139 141 146 150 153 156 167 184 210 231 243 252 255 261
197 183 182 200 220 205 201 210 203 200 200 184 179 171 173 174 170 165 159 156 153 150 147 145 143 138 136 140 143 134 135 145 151 153 154 163 192 220 234 241 248 253 258 264
169 173 188 208 207 200 222 219 213 203 200 185 176 180 180 169 167 166 161 161 157 150 148 150 150 143 138 139 134 132 140 148 151 152 162 195 231 248 257 254 253 258 260 262
173 177 187 206 194 192 205 204 200 196 200 192 177 172 177 176 166 160 157 155 153 151 148 148 146 142 140 141 135 133 139 151 155 173 208 238 254 261 266 273 273 250 253 267